{"data":{"norad_id":48057,"intl_designator":"2021-025R","name":"ONEWEB-0155","alt_names":[],"object_type":"PAYLOAD","status":"ACTIVE","operator":null,"country":"UK","launch_date":"2021-03-25","launch_site_code":"VOSTO","launch_vehicle":null,"mission":null,"orbit_class":"UNKNOWN","rcs_meters":null,"size_class":null,"mass_kg":null,"dimensions":null,"purposes":["comms"],"wikipedia_slug":null,"has_3d_model":false,"image_url":null,"decayed_at":null,"tle_current":{"epoch":"2026-09-19T10:40:16.232448Z","epoch_age_seconds":109505,"freshness":"FRESH","line1":"1 48057U 21025R   26262.44463232 -.00000278  00000+0 -79716-3 0  9991","line2":"2 48057  87.8922 301.4698 0001827  97.3427 262.7910 13.13471068266053","mean_motion":13.13471068,"eccentricity":0.0001827,"inclination_deg":87.8922,"raan_deg":301.4698,"arg_perigee_deg":97.3427,"mean_anomaly_deg":262.791,"bstar":-0.00079716,"rev_number":26605,"period_min":109.6331723692,"perigee_km":1208.3749776695,"apogee_km":1211.1475957035,"semimajor_km":7587.8982866865,"source":"CELESTRAK","updated_at":"2026-09-20T09:00:44.587018Z"}}}